Location: Home
(42.5358°N, 72.7383°W)
Time: 12:50:27
(UTC-05:00)

Explorer 7 - Pass Details

Date: 03 December 2021
Orbit: 483 x 674 km, 50.3° (Epoch: 20 January)

Event Time Altitude Azimuth Distance (km) Brightness Sun altitude
Rises 08:17:13 0° 284° (WNW) 2,733 9.8 10.1°
Reaches altitude 10° 08:19:47 10° 297° (WNW) 1,803 8.9 10.4°
Maximum altitude 08:23:16 26° 355° (N) 1,046 7.9 10.9°
Drops below altitude 10° 08:26:36 10° 55° (NE) 1,721 9.5 11.3°
Sets 08:29:00 0° 68° (ENE) 2,583 10.6 11.6°
